sat.trackr.live / text

‹ back to catalog

STARLINK-31364

NORAD 59463 · 2024-068J

PAYLOAD ACTIVE UNKNOWN

§ Identity

Operator
Country
US
Launch date
2024-04-10
Launch site
AFETR
Launch vehicle
Mass (kg)
RCS (m²)

Purposes: comms

External: N2YO · Heavens-Above · Gunter

§ Orbital elements

Epoch: 2026-05-25T04:24:20.257056Z

Period
94.27 min
Inclination
43.0011°
Eccentricity
0.0001271
Mean motion
15.27580185 rev/d
Perigee alt
482.2 km
Apogee alt
483.9 km
Semi-major
6,861.2 km
B*
3.8887e-5
RAAN
318.8765°
Arg perigee
273.1884°
Mean anomaly
86.8822°
Rev number
12,026

§ Raw data

STARLINK-313641 59463U 24068J   26145.18356779  .00000808  00000+0  38887-4 0  99942 59463  43.0011 318.8765 0001271 273.1884  86.8822 15.27580185120267

JSON: /api/v1/satellites/59463 · /tle

For live sub-satellite position, see the globe view (requires WebGL).

§ Visibility from observer

Set your observer location to see the next 7 days of passes ≥ 10°. The values pass through the URL so the page stays shareable.

No JS? Fill the form by hand. The geolocation button needs JavaScript.